Change the Weather History Date:

Wednesday, February 13, 2013

  Actual Average Record
Temperature  
Mean Temperature 53 °F -  
Max Temperature 69 °F 68 °F 82 °F (1977)
Min Temperature 37 °F 45 °F 34 °F (1972)
Degree Days  
Heating Degree Days 12    
Growing Degree Days 3 (Base 50)    
Moisture  
Dew Point 23 °F    
Average Humidity 34    
Maximum Humidity 52    
Minimum Humidity 17    
Precipitation  
Precipitation 0.00 in - - ()
Sea Level Pressure  
Sea Level Pressure 30.17 in    
Wind  
Wind Speed 4 mph (NW)    
Max Wind Speed 13 mph    
Max Gust Speed 16 mph    
Visibility 10 miles    
Events      
Averages and records for this station are not official NWS values.
T = Trace of Precipitation, MM = Missing Value Source: NWS Daily Summary

Daily Weather History Graph

Daily Weather History Graph

Search for Another Location

Airport or City:

Trip Planner

Search our weather history database for the weather conditions in past years. The results will help you decide how hot, cold, wet, or windy it might be!

Date:

Astronomy

Feb. 13, 2013 Rise Set
Actual Time 6:24 AM PST 5:21 PM PST
Civil Twilight 5:59 AM PST 5:47 PM PST
Nautical Twilight 5:29 AM PST 6:16 PM PST
Astronomical Twilight 5:00 AM PST 6:45 PM PST
Moon 8:09 AM PST (2/13) 9:13 PM PST (2/13)
Length of Visible Light 11h 48m
Length of Day
10h 57m
Waxing Crescent, 14% of the Moon is Illuminated
Feb 13
Waxing Crescent
Feb 17
First Quarter
Feb 25
Full
Mar 4
Last Quarter
Mar 11
New

Hourly Weather History & Observations

Time (PST) Temp. Windchill Dew Point Humidity Pressure Visibility Wind Dir Wind Speed Gust Speed Precip Events Conditions
12:52 AM 43.0 °F 41.3 °F 19.0 °F 38% 30.22 in 10.0 mi NW 3.5 mph - N/A   Clear
1:52 AM 41.0 °F - 19.9 °F 43% 30.22 in 10.0 mi Calm Calm - N/A   Clear
2:52 AM 41.0 °F 39.0 °F 17.1 °F 38% 30.21 in 10.0 mi ESE 3.5 mph - N/A   Clear
3:52 AM 39.0 °F - 19.0 °F 45% 30.21 in 10.0 mi Calm Calm - N/A   Clear
4:52 AM 37.0 °F - 21.0 °F 52% 30.22 in 10.0 mi Calm Calm - N/A   Clear
5:52 AM 37.0 °F - 21.0 °F 52% 30.23 in 10.0 mi Calm Calm - N/A   Clear
6:52 AM 39.9 °F - 19.9 °F 45% 30.23 in 10.0 mi Calm Calm - N/A   Clear
7:52 AM 44.1 °F 42.5 °F 19.9 °F 38% 30.25 in 10.0 mi South 3.5 mph - N/A   Clear
8:52 AM 51.1 °F - 17.1 °F 26% 30.25 in 10.0 mi SW 3.5 mph - N/A   Clear
9:52 AM 53.1 °F - 21.0 °F 29% 30.25 in 10.0 mi SSW 5.8 mph - N/A   Clear
10:52 AM 57.9 °F - 26.1 °F 30% 30.24 in 10.0 mi ESE 4.6 mph - N/A   Clear
11:52 AM 64.0 °F - 26.1 °F 24% 30.20 in 10.0 mi North 9.2 mph - N/A   Clear
12:52 PM 66.9 °F - 21.9 °F 18% 30.16 in 10.0 mi North 12.7 mph - N/A   Clear
1:52 PM 69.1 °F - 21.9 °F 17% 30.13 in 10.0 mi North 12.7 mph 16.1 mph N/A   Clear
2:52 PM 69.1 °F - 21.9 °F 17% 30.12 in 10.0 mi North 6.9 mph - N/A   Clear
3:52 PM 69.1 °F - 21.9 °F 17% 30.10 in 10.0 mi NNW 11.5 mph - N/A   Clear
4:52 PM 68.0 °F - 21.9 °F 17% 30.10 in 10.0 mi North 10.4 mph - N/A   Clear
5:52 PM 61.0 °F - 27.0 °F 27% 30.10 in 10.0 mi East 4.6 mph - N/A   Clear
6:52 PM 60.1 °F - 26.1 °F 27% 30.10 in 10.0 mi Calm Calm - N/A   Clear
7:52 PM 54.0 °F - 28.0 °F 37% 30.12 in 10.0 mi WSW 4.6 mph - N/A   Clear
8:52 PM 53.1 °F - 27.0 °F 37% 30.12 in 10.0 mi NW 3.5 mph - N/A   Clear
9:52 PM 51.1 °F - 27.0 °F 39% 30.12 in 10.0 mi West 3.5 mph - N/A   Clear
10:52 PM 48.0 °F - 28.9 °F 48% 30.13 in 10.0 mi SE 5.8 mph - N/A   Clear
11:52 PM 46.0 °F 44.8 °F 28.9 °F 51% 30.12 in 10.0 mi SSW 3.5 mph - N/A   Clear